Regional Weather Roundup
Issued by NWS

Home | Current Version | Previous Version | Text Only | Print | Product List | Glossary Off
Versions: 1 2 3 4 5 6 7 8 9 10 11 12 13 14 15 16 17 18 19 20 21 22 23 24 25 26 27 28 29 30 31 32 33 34 35 36 37 38 39 40 41 42 43 44 45 46 47 48 49 50

000
ASUS43 KMKX 280311
RWRWI

WISCONSIN REGIONAL WEATHER ROUNDUP
NATIONAL WEATHER SERVICE MILWAUKEE/SULLIVAN WI
1000 PM CDT WED JUL 27 2016

NOTE: "FAIR" INDICATES FEW OR NO CLOUDS BELOW 12,000 FEET WITH NO
SIGNIFICANT WEATHER AND/OR OBSTRUCTIONS TO VISIBILITY.

WIZ001-002-006>008-014>016-023>028-280400-
NORTHWEST WISCONSIN

CITY           SKY/WX    TMP DP  RH WIND       PRES   REMARKS
SUPERIOR ARPT  CLEAR     60  58  94 NE6       30.03R
ASHLAND        CLOUDY    63  61  93 N10       30.03R
HAYWARD        CLOUDY    63  62  97 NE9       30.01R
SIREN          NOT AVBL
CUMBERLAND     CLOUDY    63  61  94 CALM      29.99R
RICE LAKE      CLOUDY    64  62  93 CALM      30.00R
CHETEK         CLOUDY    65  64  95 E5        29.97R
LADYSMITH      CLOUDY    65  64  94 CALM      30.00S
EAU CLAIRE     CLOUDY    66  65  96 NE5       29.95R
MENOMONIE      CLOUDY    67  67  99 CALM      29.96R
NEW RICHMOND   MOCLDY    66  65  96 NE6       29.97S
OSCEOLA        CLOUDY    67  67 100 N3        30.00R
$$

WIZ003>005-009-010-017-018-280400-
NORTH CENTRAL WISCONSIN

CITY           SKY/WX    TMP DP  RH WIND       PRES   REMARKS
MANITOWISH WTR RAIN      64  64 100 CALM      30.03R
ARBOR VITAE    LGT RAIN  64  63  94 E8        30.02F
WOODRUFF       LGT RAIN  64  63  94 E8        30.02F
RHINELANDER    LGT RAIN  64  62  93 E6        30.03S
EAGLE RIVER    RAIN      64  64 100 SE3       30.03F
LAND O LAKES   LGT RAIN  65  64  99 SE3       30.05S
PHILLIPS       CLOUDY    64  63  99 E3        30.00R
TOMAHAWK       DRIZZLE   62  61  96 E5        30.01S
MEDFORD        CLOUDY    63  63 100 E7        29.99R
MERRILL        RAIN      63  63 100 E6        30.00F
$$

WIZ029-030-035-036-043>047-280400-
CENTRAL WISCONSIN

CITY           SKY/WX    TMP DP  RH WIND       PRES   REMARKS
WAUSAU         LGT RAIN  64  63  96 E3        29.98F
MOSINEE        RAIN      64  64 100 NE8       30.01S
MARSHFIELD     CLOUDY    66  63  90 E7        29.97R
STEVENS POINT  LGT RAIN  64  63  99 NE7       29.99F
WAUPACA        CLOUDY    73  73  97 NE5       29.97R
WAUTOMA        CLOUDY    71  70  96 NE3       29.96R
WISC RAPIDS    LGT RAIN  68  64  87 NE10      29.98S
CAMP DOUGLAS   MOCLDY    70  68  94 N7        29.94S
$$

WIZ011>013-019>022-031-037>040-048>050-280400-
NORTHEAST WISCONSIN

CITY           SKY/WX    TMP DP  RH WIND       PRES   REMARKS
ANTIGO         RAIN      63  62  99 CALM      30.04R
SHAWANO        LGT RAIN  67  64  88 N8G17     30.00R
OCONTO         CLOUDY   N/A N/A N/A N5        29.97R
STURGEON BAY   CLOUDY    72  67  84 N10       29.98R
GREEN BAY      CLOUDY    72  68  87 CALM      29.97R
MANITOWOC      PTCLDY    68  65  90 MISG      29.97R
APPLETON       MOCLDY    73  61  64 NE8       29.96R
CLINTONVILLE   LGT RAIN  68  63  83 N7        29.98R
OSHKOSH        CLOUDY    72  66  81 SE5       29.95R
$$

WIZ032>034-041-042-053>061-280400-
SOUTHWEST WISCONSIN

CITY           SKY/WX    TMP DP  RH WIND       PRES   REMARKS
LA CROSSE      CLOUDY    76  69  79 SE6       29.91R
SPARTA         CLOUDY    71  66  85 CALM      29.95R
VIROQUA        CLOUDY    72  67  86 S5        29.95F
BOSCOBEL       PTCLDY    71  69  93 CALM      29.94R
PRAIRIE DU CHI PTCLDY    72  67  83 CALM      29.93R
PLATTEVILLE    PTCLDY    73  70  89 CALM      29.96R
$$

WIZ056-057-062-063-064-067-068-280400-
SOUTH CENTRAL WISCONSIN

CITY           SKY/WX    TMP DP  RH WIND       PRES   REMARKS
REEDSBURG      CLEAR    N/A N/A N/A CALM      29.94R
BARABOO/DELLS  PTCLDY    72  68  87 SE3       29.95S
LONE ROCK      CLEAR     70  67  90 CALM      29.94R
MINERAL POINT  CLEAR     75  68  78 CALM      29.96R
MADISON        MOCLDY    77  66  68 S8        29.94R
MIDDLETON      PTCLDY    77  68  73 SE3       29.95S
WATERTOWN      CLOUDY    72  67  85 CALM      29.95S
MONROE         CLOUDY    75  64  69 S3        29.96R
JANESVILLE     NOT AVBL
$$

WIZ051-052-058>065-066-070>072-280400-
SOUTHEAST WISCONSIN

CITY           SKY/WX    TMP DP  RH WIND       PRES   REMARKS
MILWAUKEE      CLOUDY    74  69  85 CALM      29.96R
WAUKESHA       PTCLDY    70  63  78 E3        29.98R
MILWAUKEE/TIMM CLOUDY    73  63  68 SE3       29.97R
RACINE         PTCLDY    73  67  81 CALM      29.98R
BURLINGTON     MOCLDY    70  67  89 CALM      29.96R
KENOSHA        PTCLDY    73  69  87 E6        29.96R
FOND DU LAC    CLEAR     71  66  84 SE8       29.96R
SHEBOYGAN      CLEAR     67  65  93 NE3       29.97R FOG
WEST BEND      CLOUDY    68  64  88 CALM      29.97R
JUNEAU         PTCLDY    71  66  83 E6        29.97R
$$

LSZ147-162-280400-
LAKE SUPERIOR

STATION/POSITION TIME  TEMP    WIND        PRES    WAVE
                       AIR SEA DIR/SP/G            HT/PER
                 (UTC) (F)     (DEG/KT/KT) (MB)    (FT/S)
W MID LAKE BUOY  0250   61 60  340/  4/  4 1016.5R   1/ 4
DEVILS ISLAND    0300   62      50/ 10/ 11 1017.2R
SAXON HARBOR     0200   67      60/  7/  9 1015.6S
$$

LMZ867-665-643>646-280400-
LAKE MICHIGAN

STATION/POSITION TIME  TEMP    WIND        PRES    WAVE
                       AIR SEA DIR/SP/G            HT/PER
                 (UTC) (F)     (DEG/KT/KT) (MB)    (FT/S)
CHAMBERS ISLAND  0200   72     360/ 18/ 21 1014.6S
S GREEN BAY BUOY 0200   74 75   50/  8/  8   N/A
N MID LAKE BUOY  0250   70 70   20/ 16/ 17 1013.6S   1
NORTHPORT PIER   0200   72      10/ 13/ 14 1014.6R
SISTER BAY       0221   71      30/  7/ 10   N/A
ALGOMA LAKESHORE 0243             CALM       N/A
KEWAUNEE LAKESHO 0218             CALM       N/A
SHEBOYGAN LAKESH 0300   67      30/  5/  6 1014.7R
PORT WASHINGTON  0240   67      50/  1/  2 1015.2R
ATWATER BUOY     0300   67 55   CALM  /  2 1016.3R
MILWAUKEE LAKESH 0210   71      30/  2/  2   N/A
S MID LAKE BUOY  0250   75 75  140/  4/  6 1013.7R   1
KENOSHA   LAKESH 0300   72      30/  2/  7 1013.9S
$$

TC  - TEMPERATURE IN CELSIUS
VSB - VISIBILITY IN STATUTE MILES
WCI - WIND CHILL INDEX
HX  - HEAT INDEX




USA.gov is the U.S. government's official web portal to all federal, state and local government web resources and services.